Dewpoint
72 73 74 74 74 73 75 73 73 75 76 74 72 71 68 70 68 67 67 70 66 67 66 66 71 74 75 76 75 76 76 74 75 75 77 77 78 73 71 71 71 71 71 70 70 70 71 71 71 71 71 72 72 72 71 70 70 70 69 68 68 68 67 67 67 67 68 68 68 68 69 69 70 70
75 73 73 73 72 74 73 71 71 75 76 73 73 72 72 71 70 70 68 69 70 68 68 67 68 74 76 74 74 74 76 75 74 76 77 76 76 72 71 71 71 71 70 69 68 69 69 69 70 70 71 70 70 70 69 69 68 68 67 66 66 66 66 66 66 67 66 66 67 67 68 68 68 68
75 75 74 75 74 75 74 74 71 74 74 73 73 74 74 73 72 72 71 69 71 70 69 69 70 71 74 72 73 73 74 74 74 76 77 77 75 73 76 73 71 70 69 68 68 68 67 67 68 69 68 68 68 67 67 66 66 66 66 65 64 64 64 64 65 65 65 65 66 66 67 68 68 68
74 75 75 75 75 75 75 74 73 73 75 74 73 73 74 75 74 73 72 71 70 72 70 69 71 71 72 75 75 74 75 75 74 77 78 78 76 76 75 73 71 69 69 68 68 67 66 65 66 67 66 67 67 66 65 64 64 64 64 63 62 63 63 63 64 65 64 64 65 65 66 67 67 67
75 76 75 75 75 76 75 74 73 72 73 75 74 74 74 72 74 74 73 71 71 72 74 72 71 72 73 72 75 74 73 73 75 75 76 77 74 75 75 75 71 69 68 68 67 66 65 65 65 65 65 66 65 64 63 63 62 62 62 62 61 62 61 62 63 63 63 63 63 64 65 66 66 67
75 75 76 75 75 76 75 73 72 71 70 71 71 73 73 72 73 75 73 72 72 71 73 74 74 73 74 72 76 75 74 74 76 75 76 74 73 75 75 75 75 69 69 67 66 65 64 63 63 63 64 64 63 63 62 61 61 61 61 60 60 60 60 60 61 61 61 61 62 63 64 64 65 66
75 75 75 74 74 74 74 74 73 71 72 71 72 72 73 73 73 75 75 73 72 71 71 74 72 73 75 74 74 75 75 77 77 77 74 73 72 73 75 75 73 69 68 66 65 64 64 63 62 62 62 62 61 61 60 60 59 60 59 59 59 59 59 59 59 60 60 60 60 61 62 63 64 64
74 74 75 74 74 74 75 75 74 73 73 73 74 74 74 75 74 75 76 76 74 73 72 74 74 74 74 74 75 75 76 75 76 75 76 74 73 73 73 74 74 70 66 65 64 64 63 62 61 61 60 59 59 59 59 59 58 58 58 58 58 58 58 57 58 58 58 58 58 59 60 61 62 62
75 74 74 73 74 75 75 74 74 73 74 74 73 73 74 75 74 75 75 76 76 74 73 73 75 76 75 75 76 76 74 74 75 77 77 75 74 75 72 72 73 68 66 65 65 64 63 63 62 61 60 59 59 59 59 59 58 57 56 56 57 58 58 57 57 57 57 57 57 58 59 60 61 61
75 74 74 74 74 74 74 73 73 75 75 75 74 74 74 74 75 75 75 76 76 75 74 74 73 75 74 74 75 76 76 74 73 75 75 76 75 76 73 72 72 72 70 66 64 64 63 63 61 62 61 60 60 59 59 59 58 57 56 55 56 57 56 56 56 56 56 56 56 56 57 58 59 61
73 73 73 74 75 75 75 74 73 74 75 74 74 75 75 75 75 74 74 75 75 74 74 73 74 73 74 75 73 75 77 76 75 74 74 74 75 76 75 75 73 74 74 68 67 66 65 64 62 60 60 60 60 60 59 59 59 57 56 55 56 56 55 56 55 55 55 56 56 56 56 56 58 60
71 72 73 71 73 74 75 75 75 75 74 75 75 75 75 75 75 73 73 74 73 73 73 72 71 72 74 75 75 76 76 76 76 76 74 73 73 74 76 76 75 76 76 73 66 65 64 63 62 61 61 61 60 59 59 61 59 58 56 56 58 57 56 55 55 55 55 55 55 55 56 56 57 57
73 73 72 72 71 74 76 75 75 74 75 74 75 76 76 76 75 75 74 74 74 73 73 72 73 73 73 74 75 73 73 74 73 75 75 74 74 74 74 76 76 76 75 74 72 71 72 70 68 68 68 66 63 61 60 60 61 59 57 57 58 57 56 56 55 55 55 54 55 54 55 55 56 56
72 72 71 70 75 74 75 74 72 71 71 72 73 74 77 76 76 75 74 74 73 73 73 71 71 71 71 70 73 73 73 74 76 75 76 74 73 75 75 76 76 77 74 73 75 74 72 69 69 68 67 63 65 62 60 56 57 58 57 58 57 57 57 56 56 55 55 55 55 54 54 54 55 56
71 71 72 72 74 75 75 75 72 71 70 70 70 71 73 75 76 75 74 73 74 73 72 72 72 71 72 72 72 73 72 72 73 73 74 73 73 73 72 71 75 77 76 75 75 74 72 72 70 70 67 64 63 59 57 59 59 58 57 57 57 57 57 57 57 56 55 55 55 54 54 54 55 56
71 71 70 71 71 73 74 73 75 74 71 69 69 69 69 70 72 72 75 75 74 74 73 73 72 72 72 73 74 71 70 73 73 75 74 74 73 73 73 73 72 76 77 76 74 73 73 72 70 70 69 65 63 54 59 59 58 58 57 57 56 56 56 57 57 56 56 56 55 55 55 55 55 55
72 72 72 71 71 70 74 74 74 76 77 71 68 68 69 70 69 68 68 70 75 74 75 74 73 73 73 74 74 74 73 75 74 74 73 74 74 74 74 73 72 76 78 76 74 72 72 71 71 70 70 67 64 58 60 58 59 58 57 56 56 56 56 56 56 56 56 56 54 53 53 54 54 55
71 72 73 72 72 72 74 75 74 75 76 76 76 75 75 75 74 70 67 67 68 71 74 75 75 75 76 75 76 76 77 75 74 73 73 74 74 75 74 75 76 77 76 75 74 72 72 72 70 70 70 68 66 65 59 58 58 57 56 56 56 55 56 56 56 55 55 55 55 54 53 52 52 53
71 71 72 72 71 73 74 75 75 74 75 76 75 76 75 75 75 75 74 73 72 73 72 73 74 75 76 77 77 77 77 76 76 75 75 75 75 75 75 75 76 76 77 76 74 71 71 72 71 71 70 66 67 65 59 59 58 57 56 56 55 55 55 56 56 55 55 55 54 54 53 52 52 52
73 72 72 73 73 73 73 73 69 71 75 75 75 75 75 74 74 73 73 69 70 73 73 74 73 72 72 71 76 76 74 75 77 76 74 75 75 74 73 72 70 71 74 76 75 72 72 73 70 71 68 67 67 66 62 59 58 57 57 56 55 54 54 55 55 55 55 54 54 53 53 51 51 53
72 72 73 73 72 72 73 70 65 65 70 73 73 74 73 73 72 72 73 69 66 66 65 66 66 66 65 65 64 63 65 73 73 74 73 73 72 72 72 72 70 70 71 72 74 72 71 72 72 70 68 68 66 66 64 59 58 57 56 55 55 54 53 54 54 54 54 54 54 53 53 51 51 54
72 72 72 74 73 72 72 67 64 64 69 73 73 73 72 72 72 72 71 70 71 65 64 64 64 64 65 65 64 64 63 64 69 74 72 71 71 71 72 70 70 71 72 71 72 73 71 71 71 70 69 67 66 64 66 64 59 56 55 54 54 53 54 53 53 54 54 54 53 53 52 52 53 62
70 72 71 72 71 71 71 65 63 62 67 73 73 74 73 72 72 72 72 72 72 73 73 73 72 72 69 71 72 73 67 66 69 72 73 72 72 72 70 69 71 70 69 71 75 73 72 72 70 70 68 66 65 65 66 64 63 59 59 59 59 54 54 54 53 52 53 53 53 52 52 51 53 60
70 70 71 71 64 63 63 63 61 60 61 72 73 73 72 72 72 72 73 74 73 74 74 74 74 74 74 75 75 75 74 71 71 71 73 73 72 73 72 71 71 69 69 75 73 74 72 72 71 69 68 67 64 65 66 65 63 59 58 59 58 56 57 56 55 53 52 52 52 52 51 51 52 58
67 69 70 69 66 61 60 60 59 58 57 63 73 74 74 74 74 72 73 73 75 73 74 75 74 74 75 74 74 73 75 73 72 71 72 73 73 73 71 70 70 70 70 73 70 75 73 72 71 68 67 63 61 61 65 65 62 58 58 59 58 57 59 58 57 57 54 52 51 52 51 52 52 54
68 68 69 71 68 61 59 58 58 57 57 58 71 74 65 65 65 74 74 74 73 73 73 73 72 73 73 72 73 72 72 72 72 73 73 72 73 73 73 73 72 71 71 77 66 75 74 72 72 69 67 64 62 59 61 61 62 59 59 59 58 58 58 57 56 57 58 58 58 54 55 52 52 53
68 68 70 71 67 61 57 56 56 57 57 58 65 62 62 62 63 68 72 73 73 73 72 72 73 73 73 73 72 73 73 73 74 73 74 74 74 75 75 75 75 74 74 76 73 75 75 73 72 70 67 65 63 61 58 56 56 58 59 58 58 58 58 56 55 55 56 56 58 53 51 51 52 53
68 69 70 70 63 59 56 54 55 56 57 63 59 58 59 61 64 70 72 72 73 73 72 72 72 72 72 73 73 73 74 74 76 76 75 75 75 76 76 77 76 76 76 75 74 74 74 74 70 70 69 64 60 57 58 56 56 55 56 57 56 56 55 55 56 56 57 58 57 57 56 55 57 57
68 64 61 61 59 58 56 55 56 56 56 56 58 57 58 64 69 71 72 72 73 72 72 71 72 72 73 74 75 76 77 77 77 77 76 76 77 77 77 77 76 75 74 73 74 74 73 72 71 69 67 64 59 61 57 56 54 55 55 57 55 56 56 57 56 55 56 57 55 56 56 56 55 56
62 61 59 59 59 59 60 66 67 68 69 59 57 58 61 67 69 70 71 73 72 71 71 71 71 72 73 74 76 77 78 77 75 75 75 74 74 75 74 74 74 74 73 73 73 73 72 71 70 68 65 65 61 61 61 55 55 55 55 54 55 55 56 56 55 55 57 57 56 56 57 57 56 55
66 67 65 67 63 63 63 64 64 65 66 67 65 64 65 67 69 70 71 72 73 72 72 72 73 73 74 75 76 75 75 75 74 75 74 73 72 73 73 73 73 71 69 69 68 69 69 68 69 68 65 64 62 63 62 58 56 54 55 55 54 55 57 57 58 55 56 57 57 57 58 57 56 55
68 68 65 66 70 71 71 70 69 70 71 71 70 69 68 68 69 70 70 72 73 74 74 73 73 73 74 73 73 73 73 72 72 74 73 73 73 72 73 72 71 69 68 67 67 68 67 68 68 67 66 66 64 64 62 58 56 55 55 55 55 55 55 53 54 58 59 58 57 56 56 56 55 56
70 71 71 71 71 71 69 70 70 70 71 71 71 72 72 71 71 71 71 71 72 72 73 73 73 72 73 73 73 73 73 73 73 74 74 75 73 73 72 70 70 68 67 66 67 66 67 68 68 67 67 67 66 65 59 55 56 57 56 56 56 55 55 55 55 57 60 61 59 57 59 58 57 56
69 70 70 69 69 70 70 69 70 70 71 71 71 72 68 70 71 71 71 72 72 73 73 73 73 73 73 73 73 73 72 73 73 74 71 73 73 72 70 69 69 68 68 68 67 66 66 65 65 65 65 65 64 65 61 55 54 55 55 57 56 55 57 57 58 60 60 57 57 57 58 58 57 56
67 69 69 68 69 69 70 70 69 70 70 70 71 71 71 71 71 70 71 72 71 71 72 73 73 73 72 72 72 71 71 72 73 73 72 72 73 71 70 69 69 70 70 69 68 66 63 64 64 62 63 63 62 63 63 64 58 57 58 57 57 57 58 58 57 60 60 60 58 57 57 57 58 57
67 68 69 69 69 70 70 69 70 70 70 71 71 72 71 72 72 72 72 73 73 73 73 73 72 72 71 71 71 71 71 71 72 72 71 71 71 71 71 70 70 70 69 68 67 65 63 62 62 59 58 57 55 55 60 62 62 59 57 55 59 60 60 60 60 59 57 57 59 57 54 53 54 57
69 69 69 69 71 70 69 70 70 71 71 71 72 72 72 72 72 73 74 74 75 73 73 73 71 71 71 71 71 70 71 73 72 73 72 71 72 71 70 70 69 70 68 68 67 64 63 62 61 60 57 55 53 53 55 65 59 59 63 57 61 61 62 62 61 59 58 57 59 56 55 55 55 56
69 69 69 69 70 70 71 70 70 71 71 72 72 73 73 73 73 75 76 75 73 72 72 72 71 71 71 71 71 72 72 73 72 72 71 71 70 70 70 69 68 68 68 68 66 64 64 64 61 61 59 57 56 54 53 61 58 57 56 63 58 60 61 61 58 56 61 59 56 58 57 55 58 59
69 69 69 70 70 71 71 71 71 71 72 72 72 72 73 73 73 74 75 72 72 72 72 71 71 71 71 72 71 72 72 72 71 71 71 70 70 70 69 69 68 68 67 66 65 65 63 63 62 62 60 59 58 57 55 56 55 57 58 54 60 62 60 58 56 57 57 58 60 60 59 59 58 53
68 70 70 70 71 72 71 72 72 72 72 72 72 73 72 72 73 73 73 72 72 73 72 71 71 69 71 71 71 71 71 71 71 71 71 70 69 69 69 69 68 68 67 65 64 63 63 62 63 62 61 62 61 62 60 60 60 60 61 58 51 59 61 59 57 56 57 58 60 57 57 61 60 61
68 69 70 71 71 72 72 72 72 72 72 73 73 70 73 74 74 73 74 73 72 72 71 72 72 72 71 71 71 71 70 70 70 70 70 69 68 68 67 65 69 68 67 65 64 63 63 65 67 62 64 64 62 61 58 56 54 55 56 58 51 51 51 52 63 60 58 63 58 56 55 55 56 57
69 70 70 71 71 71 72 72 72 72 73 73 73 73 74 75 74 70 73 71 73 73 72 72 72 71 71 71 71 70 70 70 70 70 70 68 68 67 65 66 67 67 67 65 65 65 67 67 64 62 62 61 60 59 57 56 58 58 58 59 61 52 50 51 51 52 64 61 57 55 56 57 57 55
70 70 71 71 72 72 72 72 73 73 73 73 73 74 74 74 74 73 72 72 72 72 72 71 71 71 71 71 71 71 70 70 70 70 69 69 68 68 67 67 67 67 67 68 68 67 64 63 63 62 61 60 59 60 57 58 58 58 58 59 60 60 59 51 51 50 51 52 52 56 60 58 55 54
72 71 71 72 74 74 75 75 74 74 73 73 74 74 74 73 73 74 73 72 71 72 72 71 71 71 71 71 70 71 70 70 70 69 69 68 67 68 68 67 66 68 68 65 63 64 63 64 65 63 59 59 63 61 58 58 57 58 57 58 61 63 60 58 58 52 51 51 51 51 51 51 52 51
73 72 72 73 74 74 75 74 73 74 73 73 73 72 72 72 71 72 72 72 73 73 72 71 71 71 70 70 70 69 69 66 67 69 69 68 67 67 67 67 67 65 64 65 65 63 63 62 62 61 60 60 59 58 59 58 57 57 58 60 60 60 58 58 58 56 56 56 54 51 51 51 52 52